Hourly Data Report for October 01, 2013

All times are specified in Local Standard Time (LST). Add 1 hour to adjust for Daylight Saving Time where and when it is observed.

SAINT JOHN A
NEW BRUNSWICK

45°18'58.000" N
65°53'24.000" W
108.80 m
8104901
71609
YSJ

Download Data

Hourly Data (October 2013)
Hourly Data Report for October 1, 2013
Temp Definition
°C
Dew Point Temp Definition
°C
Rel Hum Definition
%
Wind Dir Definition
10's deg

Wind Spd Definition
km/h
Visibility Definition
km
Stn Press Definition
kPa
Hmdx Definition


Wind Chill Definition


Weather Definition


TIME
00:00
01:00 Legend Double Dagger 9.4 8.5 94 1 3 24.1 100.15     LegendNANA
02:00 Legend Double Dagger 10.6 9.4 92 6 5 24.1 100.11     Mostly Cloudy
03:00 Legend Double Dagger 11.3 10.1 92 7 4 24.1 100.04     LegendNANA
04:00 Legend Double Dagger 12.0 10.3 89 2 10 24.1 100.04     LegendNANA
05:00 Legend Double Dagger 12.0 10.3 89 2 10 24.1 99.99     Cloudy
06:00 Legend Double Dagger 12.6 10.7 88 2 13 24.1 99.96     LegendNANA
07:00 Legend Double Dagger 11.8 10.7 93 35 13 12.9 99.99     Rain
08:00 Legend Double Dagger 11.7 11.2 97 2 14 16.1 99.95     Rain
09:00 Legend Double Dagger 12.6 12.1 97 36 8 8.1 99.95     Rain,Fog
10:00 Legend Double Dagger 12.5 12.2 98 36 17 3.2 99.92     Rain,Fog
11:00 Legend Double Dagger 13.8 13.3 97 36 15 6.4 99.88     Rain,Fog
12:00 Legend Double Dagger 14.5 14.0 97 1 14 8.1 99.84     Rain Showers,Fog
13:00 Legend Double Dagger 14.5 14.0 97 1 17 9.7 99.76     Rain Showers,Fog
14:00 Legend Double Dagger 14.7 14.2 97 1 14 8.1 99.71     Rain Showers,Fog
15:00 Legend Double Dagger 15.0 13.7 92 3 23 16.1 99.66     LegendNANA
16:00 Legend Double Dagger 14.4 12.8 90 1 9 24.1 99.64     LegendNANA
17:00 Legend Double Dagger 14.5 12.9 90 2 6 24.1 99.65     Mostly Cloudy
18:00 Legend Double Dagger 14.4 12.8 90 4 3 24.1 99.65     LegendNANA
19:00 Legend Double Dagger 12.9 12.3 96 30 2 24.1 99.64     LegendNANA
20:00 Legend Double Dagger 11.4 11.3 99 16 2 24.1 99.66     Mostly Cloudy
21:00 Legend Double Dagger 8.4 8.3 99 19 2 0.6 99.65     Fog
22:00 Legend Double Dagger 8.3 8.3 100 12 4 0.6 99.68     Fog
23:00 Legend Double Dagger 9.2 9.2 100 2 1 0.8 99.64     Fog

Notes on Data Quality.

Legend

  • E = Estimated
  • M = Missing
  • NA = Not Available
  • ‡ = Partner data that is not subject to review by the National Climate Archives
Date modified: